Regional Weather Roundup
Issued by NWS

Home | Current Version | Previous Version | Graphics & Text | Print | Product List | Glossary On
Versions: 1 2 3 4 5 6 7 8 9 10 11 12 13 14 15 16 17 18 19 20 21 22 23 24 25 26 27 28 29 30 31 32 33 34 35 36 37 38 39 40 41 42 43 44 45 46 47 48 49 50
000
ASUS43 KMKX 041321
RWRWI

WISCONSIN REGIONAL WEATHER ROUNDUP
NATIONAL WEATHER SERVICE MILWAUKEE/SULLIVAN WI
800 AM CDT SAT JUL 04 2015

NOTE: "FAIR" INDICATES FEW OR NO CLOUDS BELOW 12,000 FEET WITH NO
SIGNIFICANT WEATHER AND/OR OBSTRUCTIONS TO VISIBILITY.

WIZ001-002-006>008-014>016-023>028-041400-
NORTHWEST WISCONSIN

CITY           SKY/WX    TMP DP  RH WIND       PRES   REMARKS
SUPERIOR ARPT  SUNNY     63  59  87 E8        29.97S
ASHLAND        CLOUDY    61  61 100 E3        29.98R FOG
HAYWARD        SUNNY     61  58  90 CALM      29.97S FOG
SIREN          FOG       61  61  99 CALM      29.96S VSB<1/4
CUMBERLAND     SUNNY     61  61 100 CALM      29.96F FOG
RICE LAKE      FOG       61  60  96 CALM      29.98S VSB<1/4
CHETEK         SUNNY     64  61  91 CALM      29.96S
LADYSMITH      SUNNY     62  60  92 CALM      29.99S FOG
EAU CLAIRE     SUNNY     65  59  81 SW3       29.95S
MENOMONIE      SUNNY     64  60  89 CALM      29.96S
NEW RICHMOND   SUNNY     65  62  92 CALM      29.96S
OSCEOLA        SUNNY     64  64 100 CALM      29.98S FOG
$$

WIZ003>005-009-010-017-018-041400-
NORTH CENTRAL WISCONSIN

CITY           SKY/WX    TMP DP  RH WIND       PRES   REMARKS
MANITOWISH WTR SUNNY     62  62 100 CALM      29.99S
ARBOR VITAE    MOSUNNY   62  61  96 CALM      29.99S
WOODRUFF       MOSUNNY   62  61  96 CALM      29.99S
RHINELANDER    SUNNY     62  60  93 CALM      30.00S
EAGLE RIVER    SUNNY     60  60 100 CALM      29.99S
LAND O LAKES   MOSUNNY   61  61 100 CALM      30.01R FOG
PHILLIPS       SUNNY     61  59  93 CALM      29.98S
TOMAHAWK       MOSUNNY   60  59  97 CALM      30.00R
MEDFORD        SUNNY     61  59  93 CALM      29.98S
MERRILL        SUNNY     59  59 100 CALM      29.99S
$$

WIZ029-030-035-036-043>047-041400-
CENTRAL WISCONSIN

CITY           SKY/WX    TMP DP  RH WIND       PRES   REMARKS
WAUSAU         SUNNY     64  59  83 CALM      29.96S
MOSINEE        SUNNY     63  63 100 CALM      29.99S
MARSHFIELD     SUNNY     65  58  78 CALM      29.97S
STEVENS POINT  PTSUNNY   61  58  88 CALM      29.98S
WAUPACA        SUNNY     66  62  86 CALM      29.97S
WAUTOMA        PTSUNNY   65  61  87 CALM      29.98R
WISC RAPIDS    SUNNY     66  58  75 CALM      29.98S
CAMP DOUGLAS   SUNNY     64  64 100 CALM      29.96S
$$

WIZ011>013-019>022-031-037>040-048>050-041400-
NORTHEAST WISCONSIN

CITY           SKY/WX    TMP DP  RH WIND       PRES   REMARKS
ANTIGO         SUNNY     63  60  92 CALM      29.99R
SHAWANO        SUNNY     66  60  82 CALM      29.97R
OCONTO         SUNNY     64  62  93 CALM      29.96R
STURGEON BAY   SUNNY     66  59  77 NE5       29.98S
GREEN BAY      SUNNY     67  61  81 CALM      29.96R
MANITOWOC      SUNNY     68  62  81 MISG      29.96R
APPLETON       MOSUNNY   64  57  77 W9        29.96F
CLINTONVILLE   SUNNY     64  57  77 NW3       29.96S
OSHKOSH        SUNNY     68  60  75 W6        29.96S
$$

WIZ032>034-041-042-053>061-041400-
SOUTHWEST WISCONSIN

CITY           SKY/WX    TMP DP  RH WIND       PRES   REMARKS
LA CROSSE      SUNNY     65  61  87 S6        29.96S
SPARTA         SUNNY     62  58  86 CALM      29.98S
VIROQUA        SUNNY     64  62  93 SW3       29.99R
BOSCOBEL       SUNNY     61  59  93 W3        29.98F FOG
PRAIRIE DU CHI SUNNY     61  58  91 CALM      29.99S
PLATTEVILLE    SUNNY     62  59  89 CALM      30.00S
$$

WIZ056-057-062-063-064-067-068-041400-
SOUTH CENTRAL WISCONSIN

CITY           SKY/WX    TMP DP  RH WIND       PRES   REMARKS
REEDSBURG      SUNNY     61  59  93 CALM      29.97F
BARABOO/DELLS  SUNNY     64  59  85 CALM      29.98S
LONE ROCK      MOSUNNY   61  58  90 CALM      29.99S
MINERAL POINT  SUNNY     64  59  82 W3        30.00S
MADISON        SUNNY     66  59  78 CALM      29.98R
MIDDLETON      SUNNY     66  60  80 CALM      29.99S
WATERTOWN      SUNNY     62  62 100 CALM      29.98S
MONROE         SUNNY     66  55  68 W8        30.00R
JANESVILLE     SUNNY     63  59  88 CALM      29.98S
$$

WIZ051-052-058>065-066-070>072-041400-
SOUTHEAST WISCONSIN

CITY           SKY/WX    TMP DP  RH WIND       PRES   REMARKS
MILWAUKEE      MOSUNNY   68  56  65 W8        29.97S
WAUKESHA       SUNNY     63  57  82 CALM      29.99S
MILWAUKEE/TIMM SUNNY     66  55  68 W7        29.98S
RACINE         SUNNY     67  56  67 W6        29.99S
BURLINGTON     SUNNY     61  58  92 CALM      29.98S
KENOSHA        SUNNY     66  58  75 W5        29.98S
FOND DU LAC    MOSUNNY   66  59  78 W3        29.97S
SHEBOYGAN      MOSUNNY   68  59  73 W6        29.96S
WEST BEND      SUNNY     64  57  77 CALM      29.98R
JUNEAU         SUNNY     61  57  87 CALM      29.99R
$$

LSZ147-162-041400-
LAKE SUPERIOR

STATION/POSITION TIME  TEMP    WIND        PRES    WAVE
                       AIR SEA DIR/SP/G            HT/PER
                 (UTC) (F)     (DEG/KT/KT) (MB)    (FT/S)
W MID LAKE BUOY  1250   42 38   40/  6/  6 1015.9R   0
DEVILS ISLAND    1300   58      60/  7/  8 1015.5R
SAXON HARBOR     1240   60     200/  2/  6 1014.9R
$$

LMZ867-665-643>646-041400-
LAKE MICHIGAN

STATION/POSITION TIME  TEMP    WIND        PRES    WAVE
                       AIR SEA DIR/SP/G            HT/PER
                 (UTC) (F)     (DEG/KT/KT) (MB)    (FT/S)
CHAMBERS ISLAND  1200   64      20/  9/ 11 1014.2R
N MID LAKE BUOY  1250   49 43  350/  2/  4 1014.5R   1/ 3
NORTHPORT PIER   1200   63     350/  2/  2 1014.2R
SISTER BAY       1244   70     130/  4/  7   N/A
ALGOMA LAKESHORE 1210          310/  6/  7   N/A
KEWAUNEE LAKESHO 1200   63     290/  5/  7 1013.4R
SHEBOYGAN LAKESH 1300   67     270/  8/ 10 1014.4S
PORT WASHINGTON  1200   65     290/  6/  9 1015.2R
ATWATER BUOY     1300   65 59  270/  8/ 10 1016.2R
MILWAUKEE LAKESH 1300   68     300/  8/  9   N/A
KENOSHA   LAKESH 1300   68     280/  7/ 10 1014.9S
$$

TC  - TEMPERATURE IN CELSIUS
VSB - VISIBILITY IN STATUTE MILES
WCI - WIND CHILL INDEX
HX  - HEAT INDEX



USA.gov is the U.S. government's official web portal to all federal, state and local government web resources and services.